Location: Krishnamma Banjar
(17.2175°N, 80.5166°E)
Time: 21:51:40
(UTC+00:00)

CZ-4B R/B - Pass Details

Date: 03 August 2024
Orbit: 807 x 881 km, 99.0° (Epoch: 17 September)

Event Time Altitude Azimuth Distance (km) Brightness Sun altitude
Exits shadow 14:53:15 37° 171° (S) 1,314 3.9 -23.5°
Maximum altitude 14:55:34 85° 256° (WSW) 879 3.2 -24.0°
Drops below altitude 10° 15:01:13 10° 346° (NNW) 2,531 6.2 -25.2°
Sets 15:03:37 0° 347° (NNW) 3,473 7.0 -25.7°
